Flag for South Korea Weather past 2 weeks in Gunsan, South Korea

Now
70 °F

Passing clouds.


Feels Like: 77 °F
Forecast: 55 / 73 °F
Wind: 12 mph from West

Location: Kunsan Ab

Current Time: May 24, 2015 at 1:28:03 PM

Latest Report: May 24, 2015 at 12:58 PM


Visibility: 10 mi

Pressure: 29.81 "Hg

Humidity: 52%

Dew point: 52 °F

Location of GunsanLocation

Historic Weather in Gunsan — Graph

°F

Gunsan temperature yesterday

Maximum temperature yesterday: 72 °F (at 12:58 PM)
Minimum temperature yesterday: 58 °F (at 1:58 AM)
Average temperature yesterday: 65 °F

Past Weeks' High & Low Weather Summary

 TemperatureHumidityPressure
High76 °F (May 17, 12:58 PM)100% (May 9, 8:58 PM)30.11 "Hg (May 9, 8:58 PM)
Low52 °F (May 17, 5:58 AM)30% (May 16, 3:58 PM)29.51 "Hg (May 11, 8:58 PM)
Average62 °F78%29.83 "Hg
* Reported May 9 11:58 AM — May 24 11:58 AM, Gunsan, Weather by CustomWeather, © 2015

Note: Actual official high and low records may vary slightly from our data, if they occured in-between our weather recording intervals... More about our weather records

Advertising

Gunsan weather history for previous 24 hours

 ConditionsComfort  
Time TempWeatherWind HumidityBarometerVisibility
11:58 AM
Sun, May 24
71 °FPassing clouds.12 mph54%29.82 "Hg10 mi
10:58 AM70 °FSunny.9 mph56%29.83 "Hg10 mi
9:58 AM69 °FSunny.6 mph59%29.83 "Hg10 mi
8:58 AM69 °FSunny.3 mph50%29.83 "Hg10 mi
7:58 AM64 °FSunny.3 mph73%29.84 "Hg7 mi
6:58 AM60 °FSunny.3 mph86%29.83 "Hg6 mi
5:58 AM57 °FFog.2 mph95%29.83 "Hg5 mi
4:58 AM57 °FClear.3 mph90%29.82 "Hg7 mi
3:58 AM58 °FClear.3 mph90%29.83 "Hg10 mi
2:58 AM58 °FPassing clouds.3 mph86%29.83 "Hg10 mi
1:58 AM60 °FPassing clouds.No wind70%29.83 "Hg10 mi
12:58 AM60 °FPassing clouds.2 mph67%29.83 "Hg10 mi
11:58 PM
Sat, May 23
61 °FClear.2 mph62%29.84 "Hg10 mi
10:58 PM61 °FClear.2 mph65%29.85 "Hg10 mi
9:58 PM61 °FClear.3 mph66%29.85 "Hg10 mi
8:58 PM63 °FPassing clouds.6 mph60%29.84 "Hg10 mi
7:58 PM65 °FOvercast.5 mph55%29.83 "Hg10 mi
6:58 PM67 °FOvercast.7 mph50%29.82 "Hg10 mi
5:58 PM71 °FPartly sunny.8 mph41%29.81 "Hg10 mi
4:58 PM71 °FPartly sunny.8 mph62%29.82 "Hg10 mi
3:58 PM72 °FBroken clouds.9 mph55%29.83 "Hg9 mi
2:58 PM71 °FBroken clouds.9 mph54%29.84 "Hg9 mi
1:58 PM72 °FCloudy.12 mph52%29.86 "Hg6 mi
Weather by CustomWeather, © 2015

See weather overviewHow to use our weather pages